Regional Weather Roundup
Issued by NWS Sterling, VA

Home | Current Version | Previous Version | Text Only | Print | Product List | Glossary Off
Versions: 1 2 3 4 5 6 7 8 9 10 11 12 13 14 15 16 17 18 19 20 21 22 23 24 25 26 27 28 29 30 31 32 33 34 35 36 37 38 39 40 41 42 43 44 45 46 47 48 49 50

000
ASUS41 KLWX 211110
RWRLWX

REGIONAL WEATHER ROUNDUP
NATIONAL WEATHER SERVICE BALTIMORE MD/WASHINGTON DC
600 AM EST FRI NOV 21 2014

Note: "FAIR" indicates few or no clouds below 12,000 feet
with no significant weather and/or obstructions to visibility.
 TC=TEMPERATURE CELSIUS

 * =Non NWS site. Station does not report precipitation (e.g. rain,
    snow, etc.), thunder, or fog.

DCZ001-MDZ009-015-VAZ040>042-051-053>054-211200-
WASHINGTON METRO

CITY           SKY/WX    TMP DP  RH WIND       PRES   REMARKS
WASHINGTON NAT PTCLDY    31   7  36 NW9       30.32R WCI  23
DULLES         PTCLDY    27   9  46 NW12      30.30R WCI  17
ANDREWS AFB    CLEAR     29   9  42 NW15      30.29R WCI  18
FT BELVOIR     CLEAR     31  10  41 NW5       30.32R
QUANTICO       CLEAR     31  12  45 N8        30.33R WCI  23
COLLEGE PARK*  CLEAR     32  10  40 W6        30.30R
LEESBURG*      MOCLDY    30  14  51 NW8       30.30R WCI  23
MANASSAS*      PTCLDY    28  12  50 NW9       30.31R WCI  20
GAITHERSBURG*  CLEAR     25   9  50 W5        30.31R

$$

MDZ006>007-011-014-211200-
BALTIMORE METRO

CITY           SKY/WX    TMP DP  RH WIND       PRES   REMARKS
BWI AIRPORT    PTCLDY    26   9  48 W5        30.29R
MD SCIENCE CTR   N/A     30   7  37 MISG      30.28R
MARTIN STATE   PTCLDY    28  12  50 W10       30.30R WCI  19
ANNAPOLIS      CLEAR     31  11  43 W8        30.30R WCI  23
FORT MEADE*    CLEAR     28  10  47 W7        30.32R

$$

MDZ012-015-019>023-211200-
MARYLAND EASTERN SHORE

CITY           SKY/WX    TMP DP  RH WIND       PRES   REMARKS
OCEAN CITY     CLEAR     29  13  51 NW3       30.27R
SALISBURY      CLEAR     32  14  47 W7        30.27R
BAY BRIDGE AP*   N/A     32  10  40 NW9       30.31R WCI  24
CAMBRIDGE*     CLEAR     36  14  41 NW10G26   30.27R WCI  28
EASTON*        CLEAR     32  14  47 NW16G24   30.32R WCI  21

$$

MDZ017>025-211200-
SOUTHERN MARYLAND

CITY           SKY/WX    TMP DP  RH WIND       PRES   REMARKS
PATUXENT RIVER CLEAR     33  14  45 NW21      30.28R WCI  21
ST INIGOES     CLEAR     30  11  45 CALM      30.29R
LEONARDTOWN*   CLEAR     30  12  47 CALM      30.30R

$$

MDZ003>005-211200-
NORTH CENTRAL MARYLAND

CITY           SKY/WX    TMP DP  RH WIND       PRES   REMARKS
FREDERICK*     NOT AVBL
HAGERSTOWN APT CLEAR     26   6  42 NW17      30.26R WCI  13
WESTMINSTER*   PTCLDY    25   9  50 W8        30.24R WCI  16

$$

MDZ501>502-211200-
WESTERN MARYLAND

CITY           SKY/WX    TMP DP  RH WIND       PRES   REMARKS
OAKLAND*       CLOUDY    14  10  85 NW15G26   30.14R WCI  -1
CUMBERLAND*    PTCLDY    27   9  46 W13G18    30.33R WCI  16

$$

VAZ025>031-211200-
SHENANDOAH VALLEY

CITY           SKY/WX    TMP DP  RH WIND       PRES   REMARKS
WINCHESTER*    MOCLDY    27   5  39 NW7       30.28R
FRONT ROYAL*   PTSUNNY   28   9  43 W9        30.27R WCI  20
LURAY*         PTSUNNY   30  12  47 W9        30.27R WCI  22
NEW MARKET*    FAIR      27   8  44 CALM      30.27R
STAUNTON*      PTCLDY    23  10  57 W3        30.28R
WAYNESBORO*    FAIR      24   9  53 CALM      30.24R

$$

WVZ021-048>050-054>055-211200-
EASTERN WEST VIRGINIA PANHANDLE

CITY           SKY/WX    TMP DP  RH WIND       PRES   REMARKS
MARTINSBURG    PTCLDY    28   5  37 NW16G24   30.29R WCI  16
PETERSBURG*    CLOUDY    28   7  41 CALM      30.29R

$$

VAZ036>039-050-211200-
CENTRAL FOOTHILLS

CITY           SKY/WX    TMP DP  RH WIND       PRES   REMARKS
CHARLOTTESVILL CLEAR     30   9  41 NW3       30.29R
CULPEPER*      PTCLDY    32  10  40 NW6       30.31R
ORANGE*        PTCLDY    27  14  59 CALM      30.31R
GORDONSVILLE*  FAIR      27  11  50 CALM      30.30R
WARRENTON*     FAIR      28  17  65 CALM      30.30R

$$

VAZ055>057-211200-
NORTH AND CENTRAL PIEDMONT

CITY           SKY/WX    TMP DP  RH WIND       PRES   REMARKS
FREDERICKSBRG* CLEAR     31  14  49 NW6       30.30R
STAFFORD*      CLEAR    N/A N/A N/A CALM      30.35R

$$

NCZ024-NYZ072-PAZ021-071-VAZ022-071-211200-
OTHER REGIONAL OBSERVATIONS

CITY           SKY/WX    TMP DP  RH WIND       PRES   REMARKS
NEW YORK CITY  CLEAR     28   9  44 W6        30.18R
PHILADELPHIA   CLEAR     29   7  39 W14       30.25R WCI  18
PITTSBURGH     PTCLDY    17  14  88 W5        30.29R
ROANOKE        CLEAR     28  10  46 W13       30.31R WCI  17
RICHMOND       CLEAR     29  15  56 N6        30.30R
RALEIGH        PTCLDY    28  24  85 CALM      30.29R

$$

ANZ530>537-211200-
MARINE OBSERVATIONS

STATION/POSITION TIME  TEMP    WIND        PRES
                       AIR SEA DIR/SP/G
                 (UTC) (F)     (DEG/KT/KT) (MB)
THOMAS PT LIGHT  1100   32 47  310/ 13/ 15 1027.2R
BALT KEY BRIDGE  1100   31     270/ 13/ 15 1025.4R
COVE POINT       1100   33     330/ 16/ 19 1025.3R
LEWISETTA        1100   34 44  330/ 11/ 15 1025.5R
SOLOMONS ISLAND  1100      48                N/A
PINEY POINT      1100          340/ 17/ 19   N/A

$$




USA.gov is the U.S. government's official web portal to all federal, state and local government web resources and services.